Weather History for Westerly, RI

Change the Weather History Date:

Saturday, April 26, 2014

  Actual Average (KGON) Record (KGON)
Temperature  
Mean Temperature 45 °F -  
Max Temperature 48 °F 60 °F 80 °F (1985)
Min Temperature 44 °F 40 °F 30 °F (1963)
Degree Days  
Heating Degree Days 20    
Moisture  
Dew Point 42 °F    
Average Humidity 87    
Maximum Humidity 93    
Minimum Humidity 76    
Precipitation  
Precipitation 0.36 in - - ()
Sea Level Pressure  
Sea Level Pressure 29.80 in    
Wind  
Wind Speed 6 mph (ENE)    
Max Wind Speed 9 mph    
Max Gust Speed -    
Visibility 8 miles    
Events Rain    
Averages and records for this station are not official NWS values.
T = Trace of Precipitation, MM = Missing Value Source: NWS Daily Summary

Daily Weather History Graph

Daily Weather History Graph

Search for Another Location

Airport:

Trip Planner

Search our weather history database for the weather conditions in past years. The results will help you decide how hot, cold, wet, or windy it might be!

Date:

Astronomy

Apr. 26, 2014 Rise Set
Actual Time 5:51 AM EDT 7:39 PM EDT
Civil Twilight 5:21 AM EDT 8:09 PM EDT
Nautical Twilight 4:45 AM EDT 8:45 PM EDT
Astronomical Twilight 4:07 AM EDT 9:23 PM EDT
Moon 4:15 AM EDT (4/26) 5:02 PM EDT (4/26)
Length of Visible Light 14h 47m
Length of Day
13h 47m
Waning Crescent, 8% of the Moon is Illuminated
Apr 26
Waning Crescent
Apr 29
New
May 6
First Quarter
May 14
Full
May 21
Last Quarter

Hourly Weather History & Observations

Time (EDT) Temp. Windchill Dew Point Humidity Pressure Visibility Wind Dir Wind Speed Gust Speed Precip Events Conditions
1:53 AM 45.0 °F 41.2 °F 39.0 °F 80% 29.81 in 10.0 mi ESE 6.9 mph - N/A   Clear
2:53 AM 45.0 °F 40.6 °F 39.9 °F 82% 29.79 in 10.0 mi ESE 8.1 mph - N/A   Partly Cloudy
3:53 AM 46.0 °F 42.5 °F 39.9 °F 79% 29.77 in 10.0 mi ESE 6.9 mph - N/A   Overcast
4:53 AM 45.0 °F 41.2 °F 39.9 °F 82% 29.77 in 10.0 mi East 6.9 mph - 0.00 in   Overcast
5:53 AM 46.0 °F 43.1 °F 39.0 °F 76% 29.77 in 10.0 mi NNE 5.8 mph - N/A   Overcast
6:53 AM 45.0 °F 41.8 °F 41.0 °F 86% 29.78 in 6.0 mi NNE 5.8 mph - 0.02 in Rain Light Rain
7:53 AM 44.1 °F 40.1 °F 42.1 °F 93% 29.77 in 5.0 mi NNE 6.9 mph - 0.09 in Rain Light Rain
8:53 AM 44.1 °F 39.5 °F 42.1 °F 93% 29.77 in 3.0 mi NE 8.1 mph - 0.12 in Rain Rain
9:53 AM 46.0 °F 43.1 °F 43.0 °F 89% 29.77 in 6.0 mi NE 5.8 mph - 0.06 in Rain Light Rain
10:53 AM 46.0 °F 41.4 °F 43.0 °F 89% 29.77 in 10.0 mi NE 9.2 mph - 0.01 in   Overcast
11:53 AM 46.0 °F 42.5 °F 43.0 °F 89% 29.76 in 10.0 mi NNE 6.9 mph - 0.01 in Rain Light Rain
12:53 PM 46.9 °F - 44.1 °F 90% 29.76 in 9.0 mi NE 5.8 mph - 0.00 in Rain Light Rain
1:19 PM 46.9 °F - 44.1 °F 90% 29.77 in 10.0 mi NNE 6.9 mph - 0.00 in   Overcast
1:41 PM 46.9 °F - 44.1 °F 90% 29.77 in 10.0 mi NNE 4.6 mph - 0.00 in   Overcast
1:53 PM 46.9 °F - 44.1 °F 90% 29.77 in 10.0 mi NNE 4.6 mph - 0.00 in   Overcast
2:53 PM 46.9 °F - 45.0 °F 93% 29.78 in 2.5 mi North 3.5 mph - 0.01 in Rain Light Rain
3:18 PM 46.9 °F - 45.0 °F 93% 29.78 in 3.0 mi Variable 4.6 mph - 0.00 in Rain Light Rain
3:36 PM 46.9 °F - 45.0 °F 93% 29.78 in 3.0 mi ENE 3.5 mph - 0.01 in Rain Light Rain
3:53 PM 46.9 °F - 45.0 °F 93% 29.79 in 4.0 mi East 4.6 mph - 0.01 in   Overcast
4:53 PM 46.0 °F 42.5 °F 43.0 °F 89% 29.81 in 10.0 mi SE 6.9 mph - N/A   Overcast
5:00 PM 46.0 °F 41.9 °F 43.0 °F 89% 29.80 in 10.0 mi SE 8.1 mph - N/A   Overcast
5:53 PM 46.0 °F 43.9 °F 43.0 °F 89% 29.81 in 10.0 mi SE 4.6 mph - N/A   Overcast
6:30 PM 46.0 °F 43.1 °F 43.0 °F 89% 29.80 in 10.0 mi East 5.8 mph - N/A   Overcast
6:50 PM 46.4 °F - 42.8 °F 87% 29.81 in 10.0 mi Calm Calm - N/A   Overcast
6:53 PM 46.9 °F - 43.0 °F 86% 29.81 in 10.0 mi SE 3.5 mph - N/A   Overcast
7:53 PM 46.0 °F 43.9 °F 41.0 °F 83% 29.83 in 10.0 mi SE 4.6 mph - N/A   Overcast
8:00 PM 45.0 °F 42.6 °F 39.9 °F 82% 29.83 in 10.0 mi ESE 4.6 mph - N/A   Overcast
8:53 PM 46.0 °F - 39.9 °F 79% 29.86 in 10.0 mi Calm Calm - N/A   Overcast
9:53 PM 45.0 °F 42.6 °F 41.0 °F 86% 29.85 in 10.0 mi SE 4.6 mph - 0.00 in   Overcast
10:53 PM 45.0 °F - 41.0 °F 86% 29.88 in 8.0 mi Calm Calm - 0.00 in Rain Light Rain
11:53 PM 44.1 °F - 41.0 °F 89% 29.87 in 10.0 mi Calm Calm - 0.03 in   Overcast